Home > Weather > Fukuoka > Past weeks

Flag for Japan Weather for the Past 2 Weeks in Fukuoka, Japan

Now
64 °F

Passing clouds.


Feels Like: 64 °F
Forecast: 60 / 76 °F
Wind: 14 mph from Southeast

Location: Fukuoka Airport

Current Time: May 1, 2016 at 8:29:40 AM

Latest Report: May 1, 2016 at 7:30 AM


Visibility: N/A

Pressure: 30.04 "Hg

Humidity: 68%

Dew Point: 54 °F

Location of FukuokaLocation

Historic Weather in Fukuoka — Graph

°F

Fukuoka Temperature Yesterday

Maximum temperature yesterday: 75 °F (at 1:00 PM)
Minimum temperature yesterday: 50 °F (at 4:30 AM)
Average temperature yesterday: 63 °F

High & Low Weather Summary for the Past Weeks

 TemperatureHumidityPressure
High77 °F (Apr 26, 10:30 AM)94% (Apr 21, 7:30 AM)30.24 "Hg (Apr 21, 7:30 AM)
Low48 °F (Apr 19, 3:30 AM)19% (Apr 16, 1:30 PM)29.47 "Hg (Apr 27, 7:30 PM)
Average62 °F68%29.89 "Hg
* Reported Apr 16 6:00 AM — May 1 6:30 AM, Fukuoka, Weather by CustomWeather, © 2016

Note: Actual official high and low records may vary slightly from our data, if they occured in-between our weather recording intervals... More about our weather records

Advertising

Fukuoka Weather History for the Previous 24 Hours

Scroll right to see more
 ConditionsComfort  
Time TempWeatherWind HumidityBarometerVisibility
6:30 AM
Sun, May 1
61 °FPassing clouds.10 mph72%30.01 "HgN/A
6:00 AM59 °FPassing clouds.10 mph77%30.01 "HgN/A
5:30 AM59 °FPassing clouds.10 mph77%30.01 "HgN/A
5:00 AM59 °FClear.10 mph77%30.01 "Hg10 mi
4:30 AM59 °FClear.12 mph77%29.98 "Hg10 mi
4:00 AM59 °FClear.12 mph77%29.98 "Hg10 mi
3:30 AM61 °FPassing clouds.12 mph72%29.98 "HgN/A
3:00 AM61 °FPassing clouds.13 mph72%29.98 "HgN/A
2:30 AM61 °FPassing clouds.12 mph72%29.98 "HgN/A
2:00 AM63 °FPassing clouds.13 mph64%29.98 "HgN/A
1:30 AM61 °FClear.13 mph68%29.98 "Hg10 mi
1:00 AM63 °FClear.17 mph68%29.98 "Hg10 mi
12:30 AM63 °FClear.18 mph68%29.98 "Hg10 mi
12:00 AM64 °FClear.16 mph60%29.98 "Hg10 mi
11:30 PM
Sat, Apr 30
64 °FClear.16 mph60%29.98 "Hg10 mi
11:00 PM64 °FClear.14 mph60%29.98 "Hg10 mi
10:30 PM63 °FClear.17 mph64%29.98 "Hg10 mi
10:00 PM64 °FClear.12 mph56%29.98 "Hg10 mi
9:30 PM64 °FClear.8 mph56%29.98 "Hg10 mi
9:00 PM64 °FClear.13 mph60%29.98 "Hg10 mi
8:30 PM66 °FClear.12 mph56%29.95 "Hg10 mi
8:00 PM66 °FClear.10 mph56%29.95 "Hg10 mi
7:30 PM68 °FPassing clouds.7 mph53%29.95 "HgN/A
7:00 PM70 °FClear.3 mph46%29.95 "Hg10 mi
6:30 PM72 °FSunny.6 mph44%29.92 "Hg10 mi
6:00 PM72 °FPassing clouds.6 mph44%29.92 "HgN/A
5:30 PM73 °FPassing clouds.6 mph41%29.92 "HgN/A
5:00 PM75 °FSunny.2 mph39%29.92 "Hg10 mi
4:30 PM73 °FPassing clouds.7 mph38%29.92 "HgN/A
4:00 PM73 °FSunny.8 mph41%29.92 "Hg10 mi
3:30 PM73 °FSunny.9 mph38%29.92 "Hg10 mi
3:00 PM73 °FSunny.9 mph38%29.92 "Hg10 mi
2:30 PM73 °FSunny.12 mph41%29.92 "Hg10 mi
2:00 PM72 °FSunny.10 mph41%29.95 "Hg10 mi
1:30 PM73 °FPassing clouds.12 mph36%29.95 "HgN/A
1:00 PM75 °FSunny.7 mph31%29.95 "Hg10 mi
12:00 PM72 °FSunny.2 mph36%29.98 "Hg10 mi
11:30 AM70 °FSunny.2 mph38%29.98 "Hg10 mi
11:00 AM70 °FSunny.2 mph40%30.01 "Hg10 mi
10:30 AM68 °FSunny.2 mph43%30.01 "Hg10 mi
10:00 AM66 °FPassing clouds.7 mph46%30.01 "HgN/A
9:30 AM64 °FSunny.8 mph52%30.01 "Hg10 mi
8:30 AM63 °FSunny.10 mph52%29.98 "Hg10 mi
8:00 AM59 °FSunny.10 mph55%29.98 "Hg10 mi
Weather by CustomWeather, © 2016

See weather overviewHow to use our weather pages